Total_Precipitation_Accumulation
1.80 1.88 1.80 1.77 1.71 1.72 1.78 1.77 1.74 1.72 1.66 1.68 1.77 1.81 1.79 1.83 1.91 2.01 1.86 1.91 1.89 1.90 1.89 1.95 2.00 2.16 2.15 2.07 2.18 2.22 2.29 2.42 2.16 1.73 1.76 1.89 1.91 1.74 1.74 1.69 1.70 1.69 1.60
1.60 1.62 1.62 1.66 1.64 1.58 1.56 1.65 1.71 1.62 1.53 1.59 1.64 1.61 1.54 1.64 1.80 1.84 1.77 1.85 1.89 1.85 1.94 2.09 2.02 2.13 2.20 2.24 2.41 2.30 2.37 2.65 2.55 2.18 2.11 2.22 2.14 2.01 1.96 1.86 1.65 1.54 1.50
1.37 1.38 1.40 1.42 1.41 1.41 1.43 1.50 1.58 1.60 1.59 1.57 1.54 1.46 1.44 1.52 1.60 1.63 1.76 1.89 1.91 1.94 2.05 2.15 2.18 2.38 2.28 2.34 2.40 2.34 2.39 2.64 2.84 2.56 2.33 2.43 2.38 2.18 2.17 1.93 1.78 1.82 1.57
1.30 1.34 1.45 1.50 1.54 1.56 1.53 1.58 1.68 1.76 1.69 1.70 1.67 1.67 1.68 1.65 1.67 1.75 1.85 1.93 1.95 1.99 2.14 2.18 2.21 2.30 2.38 2.55 2.54 2.60 2.78 2.97 3.12 2.94 2.74 2.80 2.80 2.70 2.52 2.15 2.06 1.97 1.82
1.57 1.62 1.78 1.93 1.96 1.85 1.81 1.89 1.95 1.99 1.92 2.05 2.04 2.02 2.09 2.03 1.82 1.97 2.05 2.01 2.11 2.02 2.10 2.14 2.13 2.27 2.38 2.55 2.44 2.61 2.96 3.15 3.28 3.30 3.19 3.33 3.25 3.14 2.79 2.44 2.34 2.21 2.03
1.42 1.58 1.78 1.98 2.08 2.05 2.09 2.24 2.26 2.21 2.31 2.43 2.36 2.31 2.26 1.97 2.08 2.17 2.17 2.26 2.28 2.21 2.22 2.25 2.22 2.23 2.18 2.23 2.29 2.39 2.62 2.81 3.02 3.23 3.28 3.35 3.37 3.30 3.13 2.85 2.48 2.22 2.02
1.68 1.87 1.96 2.11 2.24 2.26 2.23 2.27 2.31 2.36 2.37 2.42 2.40 2.40 2.25 2.18 2.22 2.04 2.04 2.06 2.19 2.25 2.29 2.31 2.11 1.97 2.04 1.93 2.09 2.17 2.13 2.18 2.29 2.57 2.75 2.80 3.08 3.24 3.18 2.76 2.44 2.15 1.93
1.58 1.75 1.89 2.08 2.23 2.34 2.45 2.47 2.56 2.66 2.68 2.66 2.56 2.50 2.43 2.28 2.19 2.02 2.08 1.96 2.01 2.07 2.10 2.13 2.11 2.00 1.98 2.07 2.07 1.95 1.75 1.71 1.84 1.83 1.88 2.13 2.47 2.86 3.00 2.84 2.78 2.48 2.14
1.84 2.01 2.13 2.23 2.39 2.48 2.54 2.68 2.79 2.89 2.87 2.86 2.79 2.73 2.68 2.65 2.60 2.30 2.20 2.02 2.06 2.04 2.06 2.07 2.05 1.90 2.04 1.99 1.91 1.88 1.75 1.63 1.65 1.68 1.72 1.92 2.20 2.47 2.72 2.76 2.68 2.57 2.25
2.18 2.34 2.47 2.60 2.67 2.65 2.67 2.76 2.80 2.84 2.84 2.83 2.73 2.76 2.71 2.68 2.78 2.52 2.30 2.05 2.06 2.08 2.15 2.15 2.16 2.00 2.07 2.01 1.93 1.94 1.80 1.70 1.70 1.67 1.67 1.72 1.77 2.07 2.40 2.40 2.40 2.46 2.28
2.29 2.39 2.54 2.66 2.87 3.02 3.06 2.88 2.71 2.70 2.76 2.86 2.83 2.87 2.86 2.81 2.78 2.41 2.25 2.13 2.15 2.18 2.14 2.08 2.10 2.13 1.91 1.77 1.70 1.70 1.76 1.83 1.82 1.72 1.64 1.63 1.67 1.77 1.96 2.04 2.12 2.16 2.11
2.26 2.41 2.52 2.60 2.62 2.68 2.92 2.97 2.91 2.82 2.74 2.76 2.83 2.77 2.68 2.62 2.48 2.19 1.95 1.91 1.96 1.96 1.96 1.93 1.93 1.92 1.71 1.55 1.39 1.35 1.46 1.48 1.53 1.60 1.56 1.51 1.51 1.54 1.70 1.95 2.10 2.12 2.04
2.23 2.38 2.55 2.62 2.68 2.66 2.68 2.76 2.75 2.70 2.56 2.41 2.46 2.50 2.51 2.49 2.34 2.05 1.75 1.65 1.67 1.59 1.66 1.86 1.85 1.72 1.58 1.49 1.44 1.37 1.29 1.22 1.32 1.42 1.36 1.35 1.38 1.45 1.61 1.91 2.15 2.32 2.24
2.30 2.35 2.41 2.45 2.48 2.55 2.68 2.63 2.57 2.57 2.51 2.35 2.35 2.38 2.39 2.35 2.17 1.90 1.72 1.61 1.56 1.50 1.55 1.73 1.81 1.78 1.67 1.57 1.47 1.31 1.15 1.15 1.19 1.25 1.31 1.34 1.43 1.51 1.60 1.73 2.01 2.20 2.29
2.14 2.09 2.15 2.26 2.32 2.33 2.48 2.55 2.41 2.32 2.37 2.28 2.33 2.50 2.43 2.22 2.04 1.87 1.64 1.57 1.56 1.63 1.66 1.73 1.86 1.90 1.88 1.76 1.60 1.45 1.32 1.25 1.20 1.19 1.29 1.35 1.40 1.43 1.44 1.51 1.73 1.91 1.90
2.15 2.13 2.13 2.18 2.25 2.29 2.26 2.32 2.34 2.10 2.04 1.93 1.97 2.05 2.10 1.99 1.88 1.78 1.65 1.58 1.52 1.54 1.54 1.66 1.92 1.99 1.99 1.96 1.85 1.66 1.50 1.40 1.34 1.34 1.36 1.37 1.39 1.45 1.50 1.56 1.65 1.79 1.81
2.24 2.32 2.26 2.10 2.03 2.03 2.01 1.99 2.01 1.90 1.66 1.54 1.52 1.49 1.47 1.47 1.49 1.57 1.59 1.52 1.43 1.33 1.26 1.44 1.73 1.92 1.99 2.00 1.91 1.70 1.51 1.48 1.54 1.49 1.45 1.42 1.41 1.45 1.54 1.61 1.68 1.78 1.84
1.92 2.00 1.98 1.85 1.78 1.72 1.68 1.64 1.60 1.66 1.61 1.46 1.38 1.32 1.29 1.26 1.29 1.47 1.59 1.42 1.30 1.24 1.17 1.32 1.56 1.83 1.95 2.01 1.97 1.88 1.73 1.67 1.67 1.63 1.58 1.53 1.50 1.52 1.52 1.55 1.59 1.64 1.69
1.71 1.73 1.70 1.70 1.75 1.77 1.82 1.78 1.66 1.64 1.70 1.68 1.56 1.36 1.32 1.30 1.32 1.56 1.65 1.33 1.23 1.28 1.30 1.33 1.43 1.63 1.83 1.96 1.96 1.92 1.85 1.81 1.81 1.82 1.76 1.72 1.68 1.70 1.64 1.57 1.59 1.67 1.69
1.63 1.77 1.72 1.61 1.63 1.78 1.89 1.84 1.84 1.89 1.88 1.95 1.92 1.63 1.45 1.36 1.28 1.52 1.63 1.46 1.42 1.42 1.40 1.40 1.44 1.58 1.78 1.95 2.00 1.95 1.96 1.90 1.89 1.87 1.82 1.78 1.74 1.74 1.74 1.71 1.73 1.77 1.70
1.56 1.60 1.64 1.58 1.59 1.69 1.77 1.81 1.80 1.84 1.94 1.97 1.93 1.71 1.54 1.35 1.42 1.64 1.83 1.71 1.59 1.59 1.58 1.55 1.58 1.68 1.79 1.88 1.88 1.82 1.82 1.87 1.84 1.81 1.79 1.78 1.73 1.68 1.69 1.75 1.76 1.81 1.78
1.55 1.54 1.56 1.55 1.59 1.61 1.63 1.72 1.82 1.88 1.94 2.01 1.89 1.74 1.70 1.57 1.60 1.73 1.82 1.77 1.70 1.66 1.64 1.64 1.67 1.73 1.79 1.82 1.81 1.79 1.78 1.80 1.80 1.78 1.81 1.81 1.79 1.76 1.78 1.79 1.79 1.83 1.84
1.41 1.45 1.52 1.53 1.52 1.52 1.50 1.49 1.54 1.63 1.76 1.81 1.70 1.67 1.67 1.70 1.67 1.70 1.78 1.78 1.71 1.66 1.58 1.58 1.61 1.61 1.62 1.65 1.64 1.67 1.69 1.67 1.67 1.72 1.82 1.86 1.87 1.84 1.80 1.75 1.72 1.76 1.82
1.09 1.11 1.13 1.19 1.23 1.29 1.34 1.36 1.35 1.38 1.50 1.57 1.49 1.50 1.53 1.55 1.53 1.54 1.58 1.60 1.60 1.60 1.57 1.53 1.52 1.52 1.48 1.46 1.48 1.50 1.48 1.50 1.51 1.57 1.65 1.76 1.81 1.86 1.86 1.82 1.82 1.83 1.87
1.10 1.08 1.05 1.10 1.15 1.20 1.24 1.26 1.29 1.34 1.38 1.40 1.40 1.40 1.41 1.41 1.42 1.46 1.45 1.44 1.43 1.41 1.35 1.35 1.39 1.40 1.41 1.34 1.27 1.26 1.33 1.33 1.32 1.38 1.43 1.55 1.65 1.74 1.78 1.78 1.84 1.90 1.91
1.08 1.11 1.09 1.10 1.14 1.18 1.22 1.24 1.26 1.24 1.25 1.25 1.25 1.29 1.36 1.36 1.33 1.33 1.28 1.26 1.29 1.27 1.23 1.21 1.21 1.24 1.25 1.21 1.20 1.24 1.21 1.09 1.12 1.26 1.28 1.34 1.48 1.57 1.62 1.66 1.65 1.73 1.79